Powrót do katalogu

VELA 2

LostMilitariaHEO
NORAD 674·PAYLOAD·🇺🇸 United States

Wystrzelony Oct 17, 1963 z Cape Canaveral Space Force Station

Loading…

Następne Przeloty (najbliższe 24 godziny)

TLE

NieaktualneSource: Space-Track

Epoka: Aug 12, 2026, 08:25 UTC

1 00674U 63039A   26224.35111229 -.00000709  00000-0  00000-0 0  9995
2 00674  47.8631  92.8572 6522159  86.9089 359.7597  0.22186319  9502

Śledź VELA 2 w czasie rzeczywistym z AllMySat

Download on the App Store